Starlink 11245

operational
NORAD ID: 60925 Int'l Des: 2024-155 Owner: SPXS Country: US Constellation: starlink
LEOCIRCULAR

About Starlink 11245

Description loading...

Live Position

Loading 3D Globe...

Upcoming Passes

Altitude History

Altitude vs Time

uPlot chart will show altitude changes over time

Two-Line Element Set

1 60925U 24155B 25351.51703829 -.00000554 00000-0 28529-6 0 9997
2 60925 53.1598 26.5265 0001306 84.5978 275.5189 15.69708390 75492
Epoch: Dec 17, 2025 • Age: 11 hours

Current Status

Altitude 359.7 km
Velocity 7.70 km/s
Sub-Earth Point 9.68°N, 42.55°W
Launch Date Aug 31, 2024
Age 1.2 years
Type internet

Technical Details

Classification Payload
Mass 960.00 kg
Dry Mass 910.00 kg
Total Mass 960.00 kg
Length 0.30 m
Diameter 4.10 m
Span 29.00 m
Shape Box + pan
Manufacturer SPXS
Bus Type Starlink V2MD
Phase Status In Orbit
Owner/State SPXS/US

Large Constellations

Loading constellations...